sat.trackr.live / text

‹ back to catalog

STARLINK-33569

NORAD 62769 · 2025-015M

PAYLOAD ACTIVE UNKNOWN

§ Identity

Operator
Country
US
Launch date
2025-01-21
Launch site
AFWTR
Launch vehicle
Mass (kg)
RCS (m²)

Purposes: comms

External: N2YO · Heavens-Above · Gunter

§ Orbital elements

Epoch: 2026-05-24T18:35:37.763232Z

Period
94.11 min
Inclination
53.1616°
Eccentricity
0.0000754
Mean motion
15.30203430 rev/d
Perigee alt
474.7 km
Apogee alt
475.7 km
Semi-major
6,853.3 km
B*
7.5450e-4
RAAN
328.7988°
Arg perigee
60.2664°
Mean anomaly
299.8412°
Rev number
7,613

§ Raw data

STARLINK-335691 62769U 25015M   26144.77474263  .00022056  00000+0  75450-3 0  99982 62769  53.1616 328.7988 0000754  60.2664 299.8412 15.30203430 76132

JSON: /api/v1/satellites/62769 · /tle

For live sub-satellite position, see the globe view (requires WebGL).

§ Visibility from observer

Set your observer location to see the next 7 days of passes ≥ 10°. The values pass through the URL so the page stays shareable.

No JS? Fill the form by hand. The geolocation button needs JavaScript.